Other Public Products
Issued by NWS Grand Forks, ND

Home | Current Version | Previous Version | Graphics & Text | Print | Product List | Glossary On
Versions: 1 2 3 4 5 6 7 8 9 10 11 12 13 14 15 16 17 18 19 20 21 22 23 24 25 26 27 28 29 30 31 32 33 34 35 36 37 38 39 40 41 42 43 44 45 46 47 48 49 50
000
FPUS83 KFGF 222031
OPUFGF
PRAIRIE TO PINES WEATHER ROUNDUP
NATIONAL WEATHER SERVICE EASTERN NORTH DAKOTA/GRAND FORKS ND
300 PM CDT FRI AUG 22 2014

 **SATELLITE DATA USED TO AUGMENT SKY COVER AT AUTOMATED STATIONS**
 *****  WEATHER ACROSS EASTERN NORTH DAKOTA  *****

CITY           SKY/WX    TMP DP  RH WIND       PRES   REMARKS
GRAND FORKS    CLOUDY    72  64  78 N15       30.02R
GRAND FORKS AF CLOUDY    72  68  88 N15       30.03S
GRAND CITY NWS   N/A     64 N/A N/A NW7         N/A
BUXTON           N/A     71  69  92 NW12        N/A
DEVILS LAKE    CLOUDY    68  59  73 N9        30.06S
FARGO          CLOUDY    74  67  78 NW7       30.00S
WAHPETON ARPT  CLOUDY    77  64  65 NW8       29.99S
$$

 *****  WEATHER ACROSS CENTRAL AND WESTERN NORTH DAKOTA  *****

CITY           SKY/WX    TMP DP  RH WIND       PRES   REMARKS
JAMESTOWN      CLOUDY    75  66  73 NE9       30.04S
BISMARCK       CLOUDY    74  66  76 NE13      30.04S
MINOT          CLOUDY    64  60  87 NE6       30.10R
MINOT AFB      CLOUDY    66  60  81 NE9       30.10R
GARRISON         N/A     67  62  84 NE8       30.08S
WILLISTON      CLOUDY    68  54  60 NE14      30.11S
DICKINSON      CLOUDY    66  61  84 NE12      30.07R
HETTINGER      CLOUDY    70  59  68 E6        30.08S
$$

 *****  OTHER OBSERVATIONS NORTHEAST NORTH DAKOTA  *****

CITY           SKY/WX    TMP DP  RH WIND       PRES   REMARKS
WALHALLA         N/A     72  63  73 N15       30.07R
LANGDON        CLOUDY    66  59  77 N13       30.08S
CAVALIER       CLOUDY    70  61  73 N12       30.05S
GRAFTON        CLOUDY    68  63  83 N13       30.03S
CANDO          CLOUDY    68  59  73 N12       30.09S
FORT TOTTEN      N/A     68  64  86 NE5       29.95S
ROLLA          CLOUDY    64  61  88 N13       30.12R
RUGBY          CLOUDY    64  61  88 NE9       30.09S
 ***** THE ABOVE OBSERVATIONS ARE NON NWS ARE NOT QUALITY
        CONTROLLED AND MAY MIS-REPORT RAIN FOR SNOW...
$$

 *****  OTHER OBSERVATIONS SOUTHEAST NORTH DAKOTA *****

CITY           SKY/WX    TMP DP  RH WIND       PRES   REMARKS
COOPERSTOWN    NOT AVBL
VALLEY CITY    CLOUDY    73  70  88 NE8       30.04R
OAKES          NOT AVBL
GWINNER        PTCLDY    77  66  69 N6        30.03S
SHEYENNE NWR     N/A     75  68  77 N5        29.95S
BUFFALO          N/A     72  62  69 N9          N/A
WYNDMERE       NOT AVBL
 ***** THE ABOVE OBSERVATIONS ARE NON NWS ARE NOT QUALITY
       CONTROLLED AND MAY MIS-REPORT RAIN FOR SNOW...
$$

  *****  WEATHER ACROSS NORTHERN MINNESOTA  *****

CITY           SKY/WX    TMP DP  RH WIND       PRES   REMARKS
FLAG ISLAND    CLOUDY    70  63  78 N5        30.01S
WARROAD        LGT RAIN  70  66  88 N5        30.02S
ROSEAU         LGT RAIN  70  63  78 NE7       30.02R
HALLOCK        PTSUNNY   70  64  83 N12       30.02S
THF RVR FALLS  CLOUDY    72  66  83 N10       30.00R
HALSTAD          N/A     70  66  87 N10         N/A
FOSSTON        PTSUNNY   73  68  83 W13       30.00S
BAUDETTE       CLOUDY    75  66  73 N5        30.00S
WASKISH        CLOUDY    75  68  78 CALM      29.99S
CROOKSTON      CLOUDY    70  66  88 N12       30.01S
$$
  *****  WEATHER ACROSS CENTRAL AND WEST MINNESOTA  *****

CITY           SKY/WX    TMP DP  RH WIND       PRES   REMARKS
BEMIDJI        CLOUDY    77  65  67 E5        29.99S
PARK RAPIDS    MOSUNNY   78  65  63 SE8       29.98F
WADENA         MOSUNNY   79  66  65 E5        29.98F
DETROIT LAKES  PTSUNNY   75  68  78 NW13      30.01S
MOORHEAD       PTSUNNY   73  72  94 NW9       30.01S
FERGUS FALLS   PTSUNNY   79  66  65 NW7       29.98S
ELBOW LAKE     MOCLDY    79  69  71 NW5       29.99S
MORRIS MN      MOSUNNY   81  68  65 CALM      29.98S
STAPLES        PTSUNNY   75  64  69 E3        29.99F
WHEATON        PTSUNNY   77  66  69 CALM      30.01S
$$
  *****  WEATHER ELSEWHERE ACROSS MINNESOTA  *****

CITY           SKY/WX    TMP DP  RH WIND       PRES   REMARKS
DULUTH         CLOUDY    66  62  87 SE6       30.01F FOG
INTRNTL FALLS  CLOUDY    73  64  73 N8        30.00S
ELY            CLOUDY    72  64  78 CALM      30.01S
CLOQUET        CLOUDY    66  63  88 E5        30.01F
BRAINERD       CLOUDY    72  66  81 CALM      30.00S
HIBBING        CLOUDY    74  65  73 CALM      30.00F
ALEXANDRIA     PTSUNNY   81  66  60 CALM      30.01R
SAINT CLOUD    CLOUDY    77  68  73 NW5       29.98S
MINNEAPOLIS    CLOUDY    78  68  71 NW6       29.97F
$$

  *****  WEATHER ACROSS SOUTH DAKOTA  *****

CITY           SKY/WX    TMP DP  RH WIND       PRES   REMARKS
SIOUX FALLS    PTSUNNY   85  69  58 E9        29.97F
BROOKINGS      NOT AVBL
WATERTOWN      MOSUNNY   81  68  64 E9        30.00S
HURON          PTSUNNY   85  68  56 N6        29.96F
SISSETON         N/A     79  70  74 VRB6      29.99S
ABERDEEN       CLOUDY    74  66  76 NE9       30.00F
MITCHELL       CLOUDY    84  66  54 CALM      29.96F
PIERRE         CLOUDY    77  66  68 E13       29.98F
MOBRIDGE       MOSUNNY   74  66  76 NE7       30.00F
RAPID CITY     PTSUNNY   74  61  63 E9        30.05S
$$

  *****  SOME WEATHER IN NEARBY STATES *****

CITY           SKY/WX    TMP DP  RH WIND       PRES   REMARKS
GLASGOW MT     CLOUDY    63  58  83 E15       30.10F
GREAT FALLS MT LGT RAIN  57  54  88 NE9       30.12S
CHEYENNE WY    CLOUDY    71  47  42 S12       30.15F
SCOTTSBLUFF NE CLOUDY    76  55  48 E10       30.06F
OMAHA NE       PTSUNNY   91  76  61 N9        29.89F HX 103
DES MOINES IA  CLOUDY    88  78  72 CALM      29.91F HX 101
DAVENPORT IA   MOSUNNY   85  71  63 SW12      29.93F HX  90
CHICAGO IL     PTSUNNY   85  68  56 SW5       29.92F
EAU CLAIRE WI  PTSUNNY   84  71  65 W9        29.94S
LA CROSSE WI   MOSUNNY   84  74  71 W3        29.91F HX  91
$$

  *****  SOME NATIONAL WEATHER *****

CITY           SKY/WX    TMP DP  RH WIND       PRES   REMARKS
LA GUARDIA NY  CLOUDY    73  63  70 NE14      30.01S
RALEIGH NC     PTSUNNY   88  71  57 N3        29.97F HX  94
ATLANTA GA     PTSUNNY   93  70  46 NW9       30.06F HX  99
NEW ORLEANS LA MOSUNNY   92  72  51 N7        30.07F HX  99
OKLAHOMA CITY  MOSUNNY   99  64  31 S13G24    29.96S HX 101
ALBUQUERQUE NM LGT RAIN  63  56  78 N7        30.22S
SALT LAKE CITY CLOUDY    81  44  27 VRB6      29.93F
LOS ANGELES CA MOSUNNY   74  63  68 W9        29.98S
BOISE ID       SUNNY     75  44  33 SW8       29.91F
SEATTLE WA     MOSUNNY   69  53  56 NW8       30.07F
$$

*** WEATHER ACROSS MANITOBA...SASKATCHEWAN AND ONTARIO ***
                ***ONTARIO***

CITY           SKY/WX    TMP DP  RH WIND       PRES   REMARKS
GERALDTON      MOSUNNY   77  61  57 S7        30.03F
THUNDER BAY    CLOUDY    68  63  83 E9        30.03S
SIOUX LOOKOUT  CLOUDY    73  63  68 NW3       30.02S
TORONTO        MOSUNNY   75  64  69 S6        29.99F
BIG TROUT LK   CLOUDY    70  59  68 N12G17    30.02R
PICKLE LAKE    CLOUDY    75  57  53 S6        30.03S
DRYDEN         CLOUDY    72  61  68 VRB2      30.03S
KENORA         CLOUDY    72  63  73 VRB2      30.04
$$
                *** MANITOBA***

CITY           SKY/WX    TMP DP  RH WIND       PRES   REMARKS
BRANDON        CLOUDY    66  57  72 N10       30.12R
DAUPHIN        PTSUNNY   61  57  88 N15G21    30.17R
ISLAND LAKE    LGT RAIN  52  52 100 NE6       30.16R FOG
PILOT MOUND      N/A     63  59  88 N8          N/A
THE PAS        MOSUNNY   64  52  63 NE9       30.23S
THOMPSON       PTSUNNY   59  48  67 NE8G20    30.25S
WINNIPEG       CLOUDY    68  61  77 N10       30.06R
LYNN LAKE      CLOUDY    54  46  76 MISG      30.32S
CHURCHILL      PTSUNNY   50  43  76 N22G28    30.31R
GILLAM         CLOUDY    52  48  87 N21       30.25R
$$
                ***SASKATCHEWAN***

CITY           SKY/WX    TMP DP  RH WIND       PRES   REMARKS
ESTEVAN        CLOUDY    66  54  63 NE13G18   30.14S
KINDERSLEY     CLOUDY    61  43  51 NE12      30.27S
LLOYDMINSTER   CLOUDY    55  39  54 NE6       30.33S
PRINCE ALBERT  PTSUNNY   64  50  59 N7        30.25
REGINA         PTSUNNY   64  52  63 NE12      30.19R


USA.gov is the U.S. government's official web portal to all federal, state and local government web resources and services.